{"data":{"norad_id":58033,"epoch":"2026-05-24T10:24:58.657536Z","epoch_age_seconds":134205,"freshness":"FRESH","line1":"1 58033U 23156F   26144.43401224  .00003430  00000+0  12784-3 0  9997","line2":"2 58033  53.1595 176.0699 0001213  74.3227 285.7907 15.30212425146632","mean_motion":15.30212425,"eccentricity":0.0001213,"inclination_deg":53.1595,"raan_deg":176.0699,"arg_perigee_deg":74.3227,"mean_anomaly_deg":285.7907,"bstar":0.00012784,"rev_number":14663,"period_min":94.104581591017,"perigee_km":474.34666375401,"apogee_km":476.00927796594,"semimajor_km":6853.31497086,"source":"CELESTRAK","updated_at":"2026-05-25T13:38:18.495126Z"}}